Home > Weather > Majuro > Past weeks

Flag for Marshall Islands Past Weather in Majuro, Marshall Islands — Yesterday and Last 2 Weeks

Now
84 °F

Partly cloudy.


Feels Like: 93 °F
Forecast: 83 / 87 °F
Wind: 7 mph from East

Location: Majuro Atoll

Current Time: Jul 24, 2016 at 1:21:35 AM

Latest Report: Jul 24, 2016 at 12:51 AM


Visibility: 15 mi

Pressure: 29.79 "Hg

Humidity: 78%

Dew Point: 76 °F

Location of MajuroLocation

Past Weather in Majuro — Graph

°F

Majuro Temperature Yesterday

Maximum temperature yesterday: 89 °F (at 10:50 AM)
Minimum temperature yesterday: 83 °F (at 12:52 AM)
Average temperature yesterday: 85 °F

High & Low Weather Summary for the Past Weeks

 TemperatureHumidityPressure
High90 °F (Jul 14, 12:50 PM)93% (Jul 16, 1:53 AM)29.92 "Hg (Jul 16, 1:53 AM)
Low78 °F (Jul 16, 4:51 AM)70% (Jul 9, 3:53 PM)29.72 "Hg (Jul 23, 3:52 PM)
Average84 °F80%29.82 "Hg
* Reported Jul 8 11:51 PM — Jul 23 11:50 PM, Majuro, Weather by CustomWeather, © 2016

Note: Actual official high and low records may vary slightly from our data, if they occured in-between our weather recording intervals... More about our weather records

Advertising

Majuro Weather History for the Previous 24 Hours

Scroll right to see more
 ConditionsComfort  
Time TempWeatherWind HumidityBarometerVisibility
11:50 PM
Sat, Jul 23
84 °FMostly cloudy.12 mph80%29.79 "Hg15 mi
10:52 PM83 °FMostly cloudy.14 mph83%29.80 "Hg15 mi
9:50 PM83 °FMostly cloudy.8 mph86%29.80 "Hg15 mi
8:50 PM84 °FOvercast.10 mph81%29.78 "Hg15 mi
7:54 PM83 °FCloudy.9 mph82%29.77 "Hg15 mi
6:54 PM83 °FBroken clouds.7 mph85%29.75 "Hg15 mi
4:50 PM87 °FScattered clouds.10 mph73%29.72 "Hg20 mi
3:52 PM88 °FScattered clouds.12 mph71%29.72 "Hg20 mi
2:50 PM88 °FPartly sunny.10 mph73%29.73 "Hg20 mi
1:50 PM88 °FScattered clouds.12 mph71%29.75 "Hg20 mi
12:51 PM89 °FBroken clouds.14 mph70%29.77 "Hg20 mi
11:51 AM88 °FBroken clouds.13 mph73%29.78 "Hg20 mi
10:50 AM89 °FBroken clouds.9 mph74%29.79 "Hg20 mi
9:50 AM87 °FBroken clouds.9 mph76%29.80 "Hg20 mi
8:51 AM87 °FBroken clouds.13 mph76%29.80 "Hg15 mi
7:53 AM84 °FCloudy.9 mph80%29.78 "Hg15 mi
6:52 AM83 °FMostly cloudy.8 mph81%29.77 "Hg15 mi
5:53 AM83 °FMostly cloudy.8 mph81%29.75 "Hg15 mi
4:54 AM83 °FOvercast.9 mph80%29.75 "Hg15 mi
3:51 AM83 °FOvercast.8 mph82%29.75 "Hg15 mi
2:52 AM83 °FMostly cloudy.9 mph81%29.75 "Hg15 mi
1:53 AM83 °FMostly cloudy.13 mph81%29.77 "Hg15 mi
Weather by CustomWeather, © 2016

See weather overviewHow to use our weather pages